Location: Delettes
(50.6178°N, 2.2123°E)
Time: 08:13:35
(UTC+00:00)

CZ-2C R/B - Pass Details

Date: 27 February 2020
Orbit: 784 x 871 km, 98.3° (Epoch: 30 March)

Event Time Altitude Azimuth Distance (km) Brightness Sun altitude
Rises 20:33:20 0° 14° (NNE) 3,439 6.0 -29.5°
Reaches altitude 10° 20:35:44 10° 14° (NNE) 2,488 5.2 -29.9°
Enters shadow 20:38:40 33° 14° (NNE) 1,396 3.9 -30.3°
